Regional Weather Roundup
Issued by NWS

Home | Current Version | Previous Version | Graphics & Text | Print | Product List | Glossary On
Versions: 1 2 3 4 5 6 7 8 9 10 11 12 13 14 15 16 17 18 19 20 21 22 23 24 25 26 27 28 29 30 31 32 33 34 35 36 37 38 39 40 41 42 43 44 45 46 47 48 49 50
000
ASUS44 KMEG 070610
RWRTN
TENNESSEE HOURLY STATE WEATHER ROUNDUP
NATIONAL WEATHER SERVICE MEMPHIS TN
1200 AM CST SUN FEB 07 2016

TNZ002-004-019-021-049-052-054-088>092-070700-
WEST TENNESSEE

CITY           SKY/WX    TMP DP  RH WIND       PRES   REMARKS
MEMPHIS INTL   PTCLDY    36  22  56 SE3       30.28F
NWS MEMPHIS      N/A     32 N/A N/A MISG        N/A
JACKSON        CLEAR     27  24  89 CALM      30.29F
DYERSBURG      CLEAR     34  28  80 S5        30.29F WCI  30
UNION CITY       N/A     28  25  86 CALM      30.25F
PARIS          CLEAR     34  21  60 SW3       30.26F
LEXINGTON      CLEAR     27  23  86 CALM      30.26F
$$

TNZ008-025-027-028-033-062-065-066-070700-
NORTH MIDDLE TENNESSEE

CITY           SKY/WX    TMP DP  RH WIND       PRES   REMARKS
NASHVILLE      CLEAR     34  24  67 CALM      30.27F
CLARKSVILLE    CLEAR     29  24  82 CALM      30.26F
SMYRNA         CLEAR     27  25  92 CALM      30.28F
COOKEVILLE     CLEAR     25  23  93 CALM      30.24S
CROSSVILLE     CLEAR     31  18  58 CALM      30.23F
$$

TNZ061-075-076-078-094-096-097-070700-
SOUTH MIDDLE TENNESSEE

CITY           SKY/WX    TMP DP  RH WIND       PRES   REMARKS
FAYETTEVILLE   PTCLDY    36  28  75 CALM      30.25F
TULLAHOMA        N/A     28  25  86 CALM      30.25F
WINCHESTER     CLEAR     30  27  86 CALM      30.26S
MCMINNVILLE    CLEAR     30  27  86 CALM      30.24F
COLUMBIA       CLEAR     30  30 100 CALM      30.26F
SHELBYVILLE    CLEAR     28  27  93 CALM      30.27S
$$

TNZ017-018-042-046-047-070700-
NORTHEAST TENNESSEE

CITY           SKY/WX    TMP DP  RH WIND       PRES   REMARKS
TRI CITIES     PTCLDY    27  21  78 CALM      30.22F
$$

TNZ012-013-036-069-073-074-070700-
CENTRAL EAST TENNESSEE

CITY           SKY/WX    TMP DP  RH WIND       PRES   REMARKS
KNOXVILLE      PTCLDY    34  24  67 CALM      30.23F
OAK RIDGE      MOCLDY    34  26  72 CALM      30.26F
GATLINBURG       N/A     25  18  74 CALM      30.23F
MORRISTOWN     MOCLDY    30  23  74 CALM      30.21F
$$

TNZ083-085-099-070700-
SOUTHEAST TENNESSEE

CITY           SKY/WX    TMP DP  RH WIND       PRES   REMARKS
CHATTANOOGA    CLEAR     34  25  69 CALM      30.25F
$$

SKY/WX REPORTED AS FAIR MEANS FEW OR NO CLOUDS BELOW
12 THOUSAND FEET.




USA.gov is the U.S. government's official web portal to all federal, state and local government web resources and services.